Printer-friendly version

IAU Minor Planet Center

Minor Planet Center

MPEC 2001-K12: 2001 KQ1

The following Minor Planet Electronic Circular may be linked-to from your own Web pages, but must not otherwise be redistributed electronically.


Read MPEC 2001-K11 Read MPEC 2001-K13


M.P.E.C. 2001-K12                                Issued 2001 May 19, 18:25 UT

     The Minor Planet Electronic Circulars contain information on unusual
         minor planets and routine data on comets.  They are published
   on behalf of Commission 20 of the International Astronomical Union by the
          Minor Planet Center, Smithsonian Astrophysical Observatory,
                          Cambridge, MA 02138, U.S.A.

             Prepared using the Tamkin Foundation Computer Network

                              MPC@CFA.HARVARD.EDU
          URL http://cfa-www.harvard.edu/iau/mpc.html  ISSN 1523-6714

                                   2001 KQ1

Observations:
     K01K01Q* C2001 05 17.28335 14 28 03.42 -21 32 12.5          18.0        704
     K01K01Q  C2001 05 17.29484 14 28 02.67 -21 31 51.5          18.6        704
     K01K01Q  C2001 05 17.30633 14 28 01.89 -21 31 29.5          18.2        704
     K01K01Q  C2001 05 17.31798 14 28 01.15 -21 31 08.1          18.5        704
     K01K01Q  C2001 05 17.91893 14 27 23.87 -21 12 58.2          16.6 R      176
     K01K01Q  C2001 05 17.92384 14 27 23.59 -21 12 50.3          16.7 R      176
     K01K01Q  C2001 05 17.93351 14 27 23.02 -21 12 33.2          17.0 R      176
     K01K01Q  C2001 05 17.93935 14 27 22.61 -21 12 23.1          17.0 R      176
     K01K01Q  C2001 05 18.20962 14 27 05.97 -21 04 15.5          17.3        704
     K01K01Q  C2001 05 18.22126 14 27 05.23 -21 03 54.8          17.6        704
     K01K01Q  C2001 05 18.23287 14 27 04.52 -21 03 33.8          17.7        704
     K01K01Q  C2001 05 18.24450 14 27 03.76 -21 03 12.9          17.7        704
     K01K01Q  C2001 05 18.25613 14 27 02.98 -21 02 52.2          17.6        704
     K01K01Q  C2001 05 18.26258 14 27 02.50 -21 02 40.7                      918
     K01K01Q  C2001 05 18.26792 14 27 02.26 -21 02 31.0          17.6 V      926
     K01K01Q  C2001 05 18.26918 14 27 02.10 -21 02 29.4                      918
     K01K01Q  C2001 05 18.27097 14 27 02.07 -21 02 25.1          17.3 V      926
     K01K01Q  C2001 05 18.27343 14 27 01.89 -21 02 20.8          17.5 V      926
     K01K01Q  C2001 05 18.27446 14 27 01.72 -21 02 19.5                      918
     K01K01Q  C2001 05 19.13368 14 26 10.49 -20 36 45.4          16.9 R      850
     K01K01Q  C2001 05 19.15678 14 26 09.09 -20 36 04.5          17.0 R      850
     K01K01Q  C2001 05 19.17882 14 26 07.79 -20 35 25.6          17.3 R      850
     K01K01Q  C2001 05 19.18106 14 26 07.64 -20 35 21.6          17.4 R      649
     K01K01Q  C2001 05 19.18731 14 26 07.26 -20 35 10.1          17.5 R      649
     K01K01Q  C2001 05 19.19218 14 26 06.96 -20 35 01.5          17.4 R      649
     K01K01Q  C2001 05 19.19774 14 26 06.62 -20 34 51.8          17.2 R      649
     K01K01Q  C2001 05 19.24683 14 26 03.29 -20 33 16.1          15.0 R      844
     K01K01Q  C2001 05 19.25267 14 26 02.94 -20 33 05.1          15.3 R      844
     K01K01Q  C2001 05 19.25845 14 26 02.65 -20 32 55.8          15.2 R      844
     K01K01Q  C2001 05 19.26876 14 26 02.09 -20 32 36.6          15.1 R      844
     K01K01Q  C2001 05 19.56382 14 25 45.21 -20 24 04.5          18.2 V      402
     K01K01Q  C2001 05 19.56786 14 25 44.95 -20 23 57.4                      402

Observer details:
176 Observatori Astronomic de Consell.  Observers A. Lopez, R. Pacheco.
    0.2-m  Schmidt-Cassegrain + CCD.
402 Dynic Astronomical Observatory.  Observer A. Sugie.  0.60-m f/3.7 reflector
    + CCD.
649 Powell Observatory, Louisburg.  Observers D. Young, R. Fredrick.
    Measurers K. Smalley, R. Fredrick.  0.75-m Newtonian + CCD.
704 Lincoln Laboratory ETS, New Mexico.  Observers M. Blythe, F. Shelly,
    M. Bezpalko, R. Huber, L. Manguso, S. Adams.  Measurers J. Stuart,
    R. Sayer, J. B. Evans, H. Viggh.  1.0-m f/2.15 reflector + CCD.
844 Los Molinos.  Observer R. Salvo.  0.35-m f/6.4 reflector + CCD.
850 Cordell-Lorenz Observatory, Sewanee.  Observer D. T. Durig.  0.3-m f/5.75
    Schmidt-Cassegrain + CCD.
918 Badlands Observatory, Quinn.  Observer R. Dyvig.  0.66-m f/4.8 reflector
    + CCD.
926 Tenagra II Observatory.  Observer M. Schwartz.  Measurer P. R. Holvorcem.
    0.5-m f/10 Ritchey-Chretien + CCD.

Orbital elements:
2001 KQ1
Epoch 2001 May 11.0 TT = JDT 2452040.5                  Spahr
M  53.21494              (2000.0)            P               Q
n   0.28963720     Peri.  244.33780     -0.27206342     -0.80485941
a   2.2623849      Node   232.58026     +0.92937174     -0.36188671
e   0.4700843      Incl.   41.61318     -0.24949883     -0.47036085
P   3.40           H   14.6           G   0.15
From 32 observations 2001 May 17-19.

Ephemeris:
2001 KQ1                 a,e,i = 2.26, 0.47, 42                  q = 1.1989
Date    TT    R. A. (2000) Decl.     Delta      r     Elong.  Phase     V
2001 05 11    14 35.44   -24 50.0    1.072    2.072   169.0     5.3    16.8
2001 05 21    14 24.41   -19 42.3    1.152    2.130   159.6     9.5    17.2
2001 05 31    14 17.27   -15 21.4    1.262    2.186   147.5    14.4    17.6
2001 06 10    14 13.85   -11 55.8    1.396    2.241   136.1    18.3    18.0
2001 06 20    14 13.63   -09 22.6    1.549    2.294   125.5    21.1    18.4
2001 06 30    14 16.12   -07 34.0    1.717    2.347   115.9    22.9    18.7
2001 07 10    14 20.80   -06 21.2    1.893    2.398   107.1    23.9    19.0
2001 07 20    14 27.26   -05 35.9    2.075    2.447    98.9    24.2    19.3
2001 07 30    14 35.18   -05 11.5    2.259    2.495    91.2    24.0    19.5
2001 08 09    14 44.28   -05 02.2    2.442    2.542    83.9    23.4    19.7
2001 08 19    14 54.37   -05 03.8    2.623    2.588    76.9    22.4    19.8
2001 08 29    15 05.29   -05 12.6    2.798    2.632    70.1    21.2    20.0
2001 09 08    15 16.89   -05 25.9    2.966    2.674    63.6    19.7    20.1

Timothy B. Spahr             (C) Copyright 2001 MPC           M.P.E.C. 2001-K12

Read MPEC 2001-K11 Read MPEC 2001-K13


Our Web policy. Index to the CBAT/MPC/ICQ pages.


Valid HTML 4.01!